Simultaneous Nadir Overpasses (SNOs) Predictions

Prediction of SNOs between LANDSAT-8 and METOP-A Satellite Orbit:

Table of predicted SNOs for the next 14.0 days since TLE Epoch: 9/18/2021
Index Date (LANDSAT-8) Time (LANDSAT-8) Lat,Lon (LANDSAT-8) SZA (LANDSAT-8 ) Date (METOP-A) Time (METOP-A) Lat,Lon (METOP-A) SZA (METOP-A ) Distance(km) Time Diff (sec)
1 09/20/2021 14:31:48 -81.33,-174.35 96.97 09/20/2021 14:30:39 -81.32,-174.31 97.00 1.18 69
2 09/20/2021 15:21:15 81.32, -6.97 83.01 09/20/2021 15:21:20 81.33, -7.10 83.00 2.32 5
3 09/23/2021 10:06:04 -81.32,-108.09 95.88 09/23/2021 10:05:00 -81.33,-108.25 95.92 2.90 64
4 09/23/2021 10:55:30 81.33, 59.64 84.15 09/23/2021 10:55:39 81.31, 59.70 84.15 2.05 9
5 09/26/2021 05:40:19 -81.33, -41.49 94.74 09/26/2021 05:39:19 -81.32, -41.45 94.77 1.71 60
6 09/26/2021 06:29:46 81.32, 125.84 85.23 09/26/2021 06:30:00 81.32, 125.71 85.23 2.32 14
7 09/29/2021 01:14:34 -81.32, 24.70 93.66 09/29/2021 01:13:39 -81.33, 24.57 93.69 2.47 55
8 09/29/2021 02:04:00 81.32,-167.62 86.36 09/29/2021 02:04:18 81.31,-167.53 86.37 2.02 18
9 10/01/2021 20:48:49 -81.32, 91.24 92.54 10/01/2021 20:47:58 -81.31, 91.33 92.56 1.97 51



Historial Predications of SNOs between LANDSAT-8 and METOP-A
